Regional Weather Roundup
Issued by NWS

Home | Current Version | Previous Version | Graphics & Text | Print | Product List | Glossary On
Versions: 1 2 3 4 5 6 7 8 9 10 11 12 13 14 15 16 17 18 19 20 21 22 23 24 25 26 27 28 29 30 31 32 33 34 35 36 37 38 39 40 41 42 43 44 45 46 47 48 49 50
000
ASUS43 KFSD 202110
RWRSD

WEATHER ROUNDUP FOR SOUTH DAKOTA
NATIONAL WEATHER SERVICE SIOUX FALLS SD
400 PM CDT FRI APR 20 2018

NOTE: "FAIR" INDICATES FEW OR NO CLOUDS BELOW 12,000 FEET WITH NO
SIGNIFICANT WEATHER AND/OR OBSTRUCTIONS TO VISIBILITY.


SDZ001>005-009-010-012>017-202200-
NORTHWEST AND NORTH CENTRAL SOUTH DAKOTA

CITY           SKY/WX    TMP DP  RH WIND       PRES   REMARKS
BUFFALO          N/A     58  32  37 SE25G33   30.04F
FAITH            N/A     53  34  48 SE24G30   30.17F
MOBRIDGE       CLOUDY    55  34  45 SE17      30.23F
$$

SDZ012>016-024>037-041>051-057-063-072>074-202200-
SOUTHWEST AND SOUTH CENTRAL SOUTH DAKOTA

CITY           SKY/WX    TMP DP  RH WIND       PRES   REMARKS
RAPID CTY ARPT LGT RAIN  44  40  85 SE22      30.16R
PIERRE         CLOUDY    51  34  52 SE18G24   30.26R
CUSTER         CLOUDY    36  32  85 SE9G18    30.12S
ELLSWORTH AFB  LGT RAIN  45  43  93 S22G29    30.14
PHILIP         CLOUDY    50  34  54 S14       30.24R
PINE RIDGE     LGT RAIN  40  37  89 SE9       30.17S
SPEARFISH      CLOUDY    54  32  43 SE15      30.07R
WINNER         CLOUDY    48  34  58 SE9       30.29R
$$

SDZ004>011-016>023-039-040-202200-
NORTHEAST SOUTH DAKOTA

CITY           SKY/WX    TMP DP  RH WIND       PRES   REMARKS
ABERDEEN       PTSUNNY   55  37  50 S12       30.32F
WATERTOWN      CLOUDY    50  38  63 S10       30.33F
BROOKINGS      CLOUDY    48  37  65 SE9       30.35F
SISSETON         N/A     54  40  59 SE12      30.34F
$$

SDZ017-020-022-023-036>040-048>070-202200-
SOUTHEAST SOUTH DAKOTA

CITY           SKY/WX    TMP DP  RH WIND       PRES   REMARKS
SIOUX FALLS    CLOUDY    49  35  58 SE8       30.34F
HURON          CLOUDY    48  36  63 SE8       30.33F
CHAMBERLAIN    CLOUDY    49  40  70 SE12      30.30R
MITCHELL       CLOUDY    45  37  73 E12       30.32F
YANKTON        CLOUDY    56  33  42 SE13G18   30.30F
$$

ABBREVIATIONS USED IN REMARKS
   TC - TEMPERATURE IN CELSIUS
  WCI - WIND CHILL INDEX
   HX - HEAT INDEX
  VSB - VISIBILITY





USA.gov is the U.S. government's official web portal to all federal, state and local government web resources and services.